Location: Bay Ridge
(40.6340°N, 74.0146°W)
Time: 05:25:07
(UTC+00:00)

Cosmos 1937 Rocket - Pass Details

Date: 15 November 2019
Orbit: 747 x 780 km, 74.0° (Epoch: 07 December)

Event Time Altitude Azimuth Distance (km) Brightness Sun altitude
Rises 10:00:08 0° 200° (SSW) 3,189 6.6 -19.4°
Reaches altitude 10° 10:02:29 10° 202° (SSW) 2,265 5.8 -19.0°
Maximum altitude 10:07:37 80° 290° (WNW) 764 3.3 -18.0°
Drops below altitude 10° 10:12:46 10° 17° (NNE) 2,271 6.0 -17.1°
Sets 10:15:08 0° 19° (NNE) 3,199 6.8 -16.6°
